Theta_e
289 289 289 290 293 295 296 299 301 301 300 300 301 302 303 302 301 300 300 299 298 298 298 298 298 300 301 303 304 304 304 303 303 302 301 301 300 300 299 299 298 298 298 298 298 297 297 297 297 297 297 297 296 296 296 296 295 295 295 296 296 296 296 297 297 297 297 297 297 297 297 297 297 297 298 297 297 297 297 297 297 298 298 299 299 300
290 289 288 289 291 293 294 296 299 300 301 300 300 300 299 297 296 296 296 296 296 296 296 296 296 297 298 301 303 303 303 302 302 301 300 300 299 299 298 298 298 298 298 297 297 297 297 296 296 296 296 296 296 295 295 295 295 295 295 295 295 295 296 296 296 296 296 296 296 296 296 296 297 297 297 297 296 296 296 297 297 298 298 299 299 300
290 290 288 288 290 292 293 294 296 298 300 299 299 298 296 295 294 294 294 294 293 293 293 294 295 295 296 299 301 302 302 301 301 300 300 299 299 298 298 298 298 298 297 297 297 297 296 296 296 295 295 295 295 295 295 295 295 295 295 295 295 295 295 295 295 295 295 295 295 296 296 296 296 296 296 296 296 296 296 296 297 298 299 299 299 300
289 290 288 287 287 289 290 292 294 296 298 298 297 296 295 294 293 292 291 291 291 291 292 292 293 293 294 297 299 301 301 300 300 299 299 298 298 298 298 298 298 297 297 297 296 296 296 296 295 295 295 295 294 294 294 294 294 294 294 295 295 294 294 294 294 294 294 294 294 295 295 295 295 295 295 295 295 295 296 296 297 298 298 299 299 299
288 288 287 287 288 288 288 291 294 296 296 295 295 294 293 292 291 290 290 290 290 290 290 291 291 292 293 295 297 300 300 299 299 298 298 298 298 298 298 297 297 297 297 296 296 295 295 295 295 295 294 294 294 294 294 294 294 294 294 294 294 294 294 294 294 293 293 293 294 294 294 294 294 295 295 295 295 295 296 296 297 298 298 299 299 299
286 286 286 287 287 288 290 292 294 295 294 293 292 291 291 291 290 289 289 289 289 289 289 290 290 291 292 294 297 298 299 298 298 298 297 297 297 297 297 297 297 297 296 296 295 295 295 295 294 294 294 294 294 294 294 294 294 294 294 294 294 293 293 293 293 293 293 293 293 294 294 294 294 294 294 294 295 295 295 296 297 298 298 298 299 299
284 284 285 285 286 286 288 291 292 293 292 291 291 290 290 289 289 289 288 288 288 288 289 289 289 290 291 294 296 297 296 297 297 297 297 297 297 297 297 297 296 296 296 295 295 295 294 294 294 294 294 294 294 294 294 294 294 294 293 293 293 293 293 293 293 293 293 293 293 293 294 294 294 294 294 294 294 294 295 296 296 297 298 298 298 298
286 285 285 285 286 286 287 288 289 291 291 291 291 290 289 288 288 287 287 288 288 288 288 288 288 288 288 290 291 292 292 293 294 294 295 296 296 296 296 296 296 295 295 295 294 294 294 294 294 294 294 294 294 294 294 293 293 293 293 293 293 292 292 292 292 292 292 293 293 293 293 293 294 294 294 294 294 294 295 295 296 297 297 297 297 297
289 287 285 286 287 289 288 287 286 287 289 291 291 290 289 287 287 287 287 287 287 287 287 286 286 286 286 287 288 289 290 291 291 291 292 292 293 294 295 295 295 295 295 294 294 294 294 294 294 294 294 294 294 294 293 293 293 293 292 292 292 292 292 292 292 292 292 293 293 293 293 293 293 293 293 294 294 294 294 295 296 296 296 296 297 297
290 288 286 286 287 288 289 287 286 286 286 291 292 291 290 288 287 287 286 285 286 286 286 285 285 285 285 285 286 288 290 291 292 292 293 291 292 293 293 293 294 294 294 294 294 294 294 294 294 294 294 294 293 293 293 293 292 292 292 292 292 292 292 292 292 292 292 292 293 293 293 293 293 293 293 293 293 294 294 295 295 296 296 296 296 296
289 287 286 286 286 286 287 287 286 286 288 291 292 291 291 290 288 287 285 284 284 285 285 284 284 284 283 284 284 285 286 286 287 288 289 289 290 290 290 290 291 292 292 293 293 293 293 294 294 294 293 293 293 292 292 292 292 292 292 292 292 292 291 291 292 292 292 292 292 293 293 293 293 293 293 293 293 293 294 295 295 295 295 295 295 295
289 287 286 287 287 287 287 287 287 288 290 291 291 290 289 289 289 288 286 284 283 283 283 283 283 283 282 282 282 282 282 282 281 282 282 283 284 284 285 285 286 287 288 289 290 291 292 292 293 293 293 292 292 292 292 291 292 292 292 291 291 291 291 291 291 292 292 292 292 292 292 293 293 293 293 293 293 293 294 294 295 295 295 294 294 295
289 287 287 288 288 289 289 289 289 289 290 291 290 290 290 289 289 289 287 285 283 283 282 282 281 282 282 282 281 281 281 280 280 280 280 280 280 280 280 281 281 281 282 283 284 286 290 290 291 291 292 292 292 291 292 291 291 291 291 291 291 291 291 291 291 291 291 292 292 292 292 292 292 292 292 292 293 293 293 294 295 295 295 294 294 294
289 289 289 289 289 289 290 290 290 290 291 291 291 291 291 290 289 288 286 284 283 283 282 281 281 281 281 281 281 281 281 281 280 280 280 279 279 278 279 280 280 280 280 280 280 282 286 286 286 287 290 291 291 291 291 291 291 291 291 291 291 291 291 291 291 291 291 291 292 292 292 292 292 292 292 292 292 293 293 294 294 294 294 294 294 294
291 291 291 290 290 290 290 290 291 291 291 291 291 291 291 290 289 287 285 283 282 282 282 281 280 280 281 281 281 280 280 280 280 280 279 279 278 278 277 279 280 280 280 279 279 280 283 282 282 282 285 288 290 290 290 290 290 291 291 291 290 290 290 291 291 291 291 291 291 292 292 292 292 292 292 292 292 292 293 294 294 294 294 293 293 293
292 292 292 291 291 291 290 291 291 291 291 291 291 291 290 290 288 287 285 283 282 281 281 280 279 279 280 280 281 281 280 280 280 279 279 279 279 278 277 278 279 280 279 279 279 279 280 280 280 281 284 288 290 290 290 290 290 290 290 290 290 290 290 290 290 290 291 291 291 291 292 292 292 292 292 292 292 292 293 293 294 294 293 293 293 293
293 293 293 292 292 291 291 292 292 291 291 291 291 291 291 290 289 287 285 283 282 282 281 280 279 279 278 279 280 281 281 280 280 279 279 278 278 278 277 278 279 279 278 278 278 278 278 279 279 281 284 289 290 290 290 290 290 290 290 290 290 290 290 290 290 290 290 291 291 291 291 291 291 291 292 292 292 292 292 293 293 293 293 293 292 292
293 293 293 293 293 292 292 292 292 292 291 291 291 291 291 290 289 287 285 284 283 283 282 282 281 280 279 278 279 280 280 280 280 279 278 278 278 278 278 278 278 278 278 277 277 277 278 277 278 280 286 289 290 290 290 290 290 290 290 290 290 290 290 290 290 290 290 291 291 291 291 291 291 291 291 292 292 292 292 292 293 293 293 292 292 292
293 294 294 294 293 293 292 292 292 292 291 291 291 291 290 290 289 287 286 285 284 284 283 282 282 281 280 279 279 280 280 280 280 279 278 277 277 278 278 278 279 278 277 277 277 277 277 277 281 287 291 290 290 290 290 290 289 290 290 289 290 290 290 290 290 290 290 290 291 291 291 291 291 291 291 291 292 292 292 292 293 293 293 292 292 292
294 294 295 295 294 293 292 293 293 293 293 292 292 291 290 289 288 287 286 285 285 284 284 283 282 280 280 279 279 279 280 280 279 279 277 277 277 277 277 278 278 278 277 277 277 277 277 277 279 283 290 290 289 289 289 289 289 289 289 289 289 289 289 290 290 290 290 290 290 291 291 291 291 291 291 291 291 292 292 292 292 292 292 292 292 291
295 295 297 297 296 294 294 294 294 295 295 294 292 291 290 289 288 287 286 285 284 284 283 282 281 280 280 280 279 279 279 279 279 278 277 277 277 277 277 276 276 276 277 277 277 277 277 277 277 280 289 289 289 289 289 289 289 289 289 289 289 289 289 289 289 290 290 290 290 290 290 290 291 291 291 291 291 291 292 292 292 292 292 292 291 291
298 297 298 298 298 297 296 296 296 296 296 294 293 291 291 289 288 287 286 285 284 283 282 281 280 280 280 280 279 279 279 279 279 278 277 276 276 276 277 276 276 276 276 276 276 276 277 277 277 280 286 289 289 289 289 289 289 289 289 289 289 289 289 289 289 289 289 290 290 290 290 290 290 290 291 291 291 291 292 292 292 292 292 291 291 291
299 299 299 298 298 297 297 296 296 296 296 295 294 293 292 290 289 288 286 285 284 282 281 280 280 280 280 279 279 279 279 279 279 279 278 277 276 276 276 277 277 276 276 276 276 276 276 277 277 279 283 287 288 288 288 288 288 288 289 289 289 289 289 289 289 289 289 289 289 290 290 290 290 290 290 290 291 291 291 292 292 292 291 291 291 290
298 297 297 298 298 297 296 296 296 295 295 294 293 292 291 290 289 287 286 284 282 281 280 280 279 279 279 279 279 279 279 279 278 279 278 277 276 276 276 277 277 277 276 276 276 275 276 276 277 277 279 283 286 287 288 288 288 288 288 288 289 289 289 289 289 289 289 289 289 289 289 289 290 290 290 290 290 291 291 291 291 291 291 291 290 290
296 296 297 298 298 298 297 296 296 295 294 292 290 289 288 287 286 285 283 282 282 281 280 280 279 278 278 279 279 279 279 278 278 278 278 277 276 276 276 276 276 276 276 276 276 275 275 276 276 276 276 279 283 286 287 287 287 288 288 288 288 288 289 289 289 289 289 289 289 289 289 289 289 290 290 290 290 290 291 291 291 291 291 290 290 289
298 298 299 300 300 300 299 299 298 297 295 292 289 288 287 286 285 283 282 282 281 281 281 280 279 278 278 278 278 279 279 278 278 277 277 277 276 275 275 275 275 275 276 275 276 276 276 276 276 275 275 276 280 284 286 286 287 287 287 288 288 288 288 288 288 288 288 289 289 289 289 289 289 289 290 290 290 290 290 290 291 290 290 289 289 288
302 302 302 302 302 301 300 300 299 298 296 293 291 289 287 286 284 283 282 282 282 282 281 280 278 278 278 278 278 278 279 279 278 277 277 277 276 275 275 275 275 275 275 275 275 277 278 277 276 275 275 273 276 280 284 285 286 286 287 287 287 288 288 288 288 288 288 288 288 288 289 289 289 289 289 289 290 290 290 290 290 290 289 288 287 286
303 302 302 302 301 301 300 299 298 297 296 295 294 292 290 287 285 284 282 282 283 283 282 280 279 278 278 278 278 278 279 279 278 277 276 277 277 276 275 274 274 274 275 274 275 277 279 277 275 273 273 274 275 278 281 283 284 285 285 286 286 287 287 287 287 287 287 288 288 288 288 288 289 289 289 289 289 290 290 290 290 289 288 286 284 283
301 302 301 301 301 300 299 299 298 297 296 295 294 293 291 289 287 285 284 284 284 283 282 281 280 279 279 278 278 278 278 279 278 278 277 278 277 275 275 274 273 273 273 273 274 274 275 275 273 272 271 275 277 277 277 280 281 282 283 284 285 286 287 287 287 287 287 287 288 288 288 288 288 288 289 289 289 289 290 290 289 288 286 284 282 281
297 297 298 298 298 298 297 296 296 297 296 296 295 293 292 289 288 287 285 285 285 284 283 282 281 280 279 278 278 278 278 278 279 278 277 277 276 275 275 273 272 271 272 272 273 273 273 275 274 273 273 275 276 275 274 276 277 277 278 280 282 284 286 286 287 287 287 287 287 287 287 287 288 288 288 288 289 289 289 290 289 287 284 282 281 281
290 291 291 291 292 293 293 293 294 294 295 294 293 291 289 288 287 287 286 286 286 285 284 282 282 281 280 279 278 278 279 279 279 279 277 277 276 275 275 274 271 270 270 272 273 273 272 273 275 275 274 274 273 273 274 275 275 275 274 275 277 281 285 286 286 286 286 286 286 287 287 287 287 288 288 288 289 289 289 289 289 287 283 281 281 281
286 286 286 287 287 288 288 289 289 289 290 290 289 289 288 287 287 287 286 286 286 286 284 283 282 281 281 281 281 280 280 279 279 279 277 277 275 274 274 273 271 270 270 270 271 272 272 272 273 274 273 273 272 272 274 275 275 274 273 274 275 277 283 284 284 284 285 285 286 286 286 286 286 287 287 288 288 288 289 289 289 288 284 282 282 282
284 284 284 284 284 284 284 285 285 285 285 285 286 286 287 287 287 287 286 286 286 286 285 283 282 282 281 280 279 278 278 278 279 280 279 276 274 273 272 272 271 270 269 269 269 269 270 270 271 272 272 272 272 272 272 275 275 274 273 273 273 274 279 281 281 281 283 283 284 284 285 285 285 286 286 287 287 288 288 288 289 288 286 283 282 282
284 284 283 283 283 283 283 283 283 283 283 284 284 285 285 285 285 285 285 284 284 284 284 284 284 282 281 279 277 276 276 277 280 282 280 276 274 273 272 271 271 270 269 268 268 268 268 267 268 269 271 272 273 273 272 273 274 274 271 272 272 273 276 277 278 278 279 280 280 280 281 282 283 284 285 286 287 287 288 288 288 288 288 286 284 283
283 283 282 282 282 282 282 282 282 282 282 283 283 283 283 283 283 283 283 282 282 282 281 281 282 282 281 279 278 276 276 277 280 281 280 276 274 274 273 272 271 271 270 269 268 268 268 267 268 270 270 271 272 273 272 271 271 272 271 273 273 273 274 274 274 275 277 277 277 277 277 278 279 281 282 284 286 286 287 287 287 288 288 288 286 284
282 282 281 281 281 281 281 281 281 281 281 281 281 282 282 282 282 281 281 281 281 281 281 280 280 279 279 279 278 278 277 278 280 281 280 276 275 275 274 273 272 272 271 269 268 268 269 269 270 271 271 270 271 272 273 272 271 272 273 274 274 274 274 274 273 273 273 275 277 278 277 278 278 279 280 283 285 285 286 286 287 287 288 288 287 287
281 281 281 281 281 281 280 280 280 280 280 280 280 280 281 281 281 281 280 281 281 281 281 281 280 280 280 279 278 278 278 279 279 279 278 276 275 275 274 273 273 272 271 270 270 269 270 270 270 269 269 269 269 270 272 272 272 273 273 273 273 273 273 273 274 274 273 276 277 278 279 279 279 279 280 282 283 284 284 285 286 286 287 287 287 287
281 281 280 280 280 280 280 279 279 279 279 279 279 280 280 280 280 280 280 280 280 279 279 279 279 279 280 279 278 277 276 276 275 275 275 273 273 274 273 272 272 272 271 271 271 270 270 271 271 270 270 268 269 271 272 270 270 271 272 273 273 272 272 273 274 275 275 276 278 279 280 279 278 277 278 279 279 280 280 281 283 285 286 286 286 287
281 280 280 280 280 280 279 279 279 279 279 279 279 279 279 280 280 280 279 279 279 279 278 278 278 277 278 278 278 277 275 274 273 272 271 271 273 274 274 273 271 270 269 268 269 270 271 270 270 269 270 269 269 270 269 268 267 268 270 272 272 272 272 275 276 276 275 275 276 279 279 277 276 276 276 276 277 277 278 278 280 282 283 282 283 284
280 280 280 280 280 279 279 279 279 279 279 279 280 280 280 280 279 279 279 279 279 278 278 277 277 277 277 277 277 276 276 274 273 272 269 270 271 272 274 273 272 270 268 266 266 267 268 268 268 269 271 269 269 270 270 268 268 270 274 273 272 273 276 277 276 274 274 273 274 275 277 276 276 276 276 276 276 276 276 277 278 280 281 280 279 280
280 280 280 280 280 280 279 279 279 279 279 280 280 280 280 279 278 278 278 278 278 278 277 277 277 276 275 275 274 274 274 274 273 272 269 270 271 273 274 273 272 270 268 267 266 266 268 267 267 266 266 265 267 269 271 271 273 276 277 274 273 273 274 277 276 275 274 273 274 275 277 277 277 276 276 276 276 276 276 276 277 279 281 279 277 277
281 280 279 279 279 279 279 279 280 280 280 280 279 279 279 278 278 278 278 277 277 277 277 277 276 276 275 275 274 274 273 273 273 273 271 271 272 273 273 273 272 271 270 270 269 268 268 268 267 267 266 265 267 269 272 272 275 277 277 276 275 275 275 277 275 273 273 274 274 274 278 276 275 274 275 275 275 276 277 276 278 280 283 280 278 277
280 279 279 279 279 279 280 280 280 280 280 279 279 278 279 279 279 279 278 277 277 277 278 278 277 277 276 275 275 274 273 272 273 273 273 270 270 271 272 271 271 271 271 271 270 269 269 270 268 265 264 264 267 270 272 272 272 274 276 277 277 275 273 275 275 273 273 274 274 273 274 274 273 273 273 274 275 275 276 278 281 283 283 281 278 278
280 279 279 279 279 280 280 280 280 279 279 279 278 279 279 280 280 279 278 278 278 278 278 278 278 277 276 275 275 275 274 273 273 273 275 275 273 270 269 268 267 267 268 270 270 269 268 269 267 265 265 265 266 268 269 269 269 270 274 277 276 276 276 278 277 275 273 274 273 272 272 273 272 271 272 273 274 275 275 276 277 278 280 280 279 279
279 279 279 279 280 280 279 279 279 279 279 279 278 279 279 280 280 279 279 278 278 278 278 278 278 277 276 275 275 275 274 273 273 273 274 276 277 275 270 268 267 267 267 268 268 268 269 269 267 267 268 268 268 268 269 269 270 271 275 276 275 275 278 279 277 275 274 274 274 273 272 271 270 270 271 273 274 275 275 276 277 278 279 280 280 280
279 279 279 279 279 279 279 279 279 279 279 279 278 279 279 279 279 279 279 278 278 278 278 278 278 277 276 276 275 275 275 274 273 272 272 273 274 274 274 273 271 269 268 267 266 266 268 268 268 268 268 269 269 268 270 271 271 271 273 274 273 272 274 276 275 274 272 273 273 273 273 270 269 270 273 274 274 274 274 275 276 278 279 280 280 281
279 279 279 279 279 279 279 279 279 279 278 278 278 278 279 279 279 279 278 278 278 278 278 278 278 277 277 276 276 276 275 274 273 271 271 271 272 274 274 275 274 273 270 268 267 266 266 267 267 267 267 270 272 273 274 273 273 273 273 272 272 272 273 274 274 273 271 272 273 272 271 270 271 272 273 273 273 274 275 276 277 278 279 280 281 281
280 279 279 279 279 279 279 279 279 278 278 278 278 278 278 279 279 278 278 278 278 279 279 278 277 277 276 276 276 276 276 275 274 272 271 271 272 273 274 274 275 275 275 274 273 272 269 268 267 267 269 272 275 276 277 277 275 274 271 272 272 272 272 273 273 272 271 272 271 270 270 270 271 271 271 272 273 275 276 278 278 279 280 280 281 281
280 280 279 279 279 278 278 278 278 278 277 277 277 278 278 279 280 280 278 278 278 279 278 277 277 276 276 276 276 277 277 276 273 272 270 270 271 272 272 272 273 274 274 273 273 273 273 273 272 271 272 273 275 277 277 278 276 274 271 272 272 273 273 273 274 273 272 271 270 269 269 269 270 270 268 270 272 275 277 278 279 280 280 281 281 282
280 280 280 279 279 278 278 278 278 278 277 277 277 277 278 279 279 279 279 279 278 278 277 277 277 276 276 276 276 276 276 274 272 271 270 269 270 271 271 271 271 271 271 270 271 272 272 274 276 277 278 278 278 278 277 277 275 273 271 272 272 273 273 273 273 273 271 271 270 269 267 268 269 270 268 269 272 274 276 278 279 280 281 282 282 283
280 280 280 279 279 279 278 278 278 278 278 278 278 278 278 278 278 278 278 278 278 277 277 277 277 277 276 276 276 276 276 275 274 273 271 270 270 270 270 269 269 269 270 271 272 274 276 276 276 278 280 283 283 282 279 279 276 274 272 272 272 272 272 271 271 271 271 271 270 268 267 268 269 270 269 269 271 274 276 278 280 280 281 282 282 283
Wind_Speed
1 1 1 3 3 3 3 4 6 7 7 6 6 6 6 7 8 8 10 9 9 8 7 7 7 8 10 13 15 15 15 15 15 14 14 13 13 12 12 11 11 10 10 9 9 9 8 8 8 8 8 7 7 7 7 7 7 7 7 8 8 9 10 11 11 12 13 14 14 14 15 15 15 16 16 16 17 17 18 18 18 19 19 20 20 21
2 1 1 3 3 3 3 3 5 7 9 8 7 7 8 8 8 7 8 8 8 7 7 7 7 7 8 11 13 15 15 15 15 14 14 13 12 12 11 11 10 10 10 10 9 9 9 9 8 8 8 7 7 7 7 7 7 7 7 8 8 9 10 10 11 12 13 13 14 14 14 15 15 16 16 16 17 17 17 18 18 19 19 20 20 21
2 2 1 3 3 3 3 3 4 6 9 8 8 8 10 10 8 7 6 6 6 6 6 6 6 7 7 9 12 15 15 15 15 14 14 13 12 12 11 11 11 10 10 10 10 9 9 9 8 8 8 7 7 7 7 7 7 7 7 8 8 9 10 10 11 12 13 13 14 14 14 14 15 15 16 16 17 17 17 18 18 19 19 20 20 21
2 2 2 2 3 3 2 3 4 5 7 8 8 9 10 9 8 7 6 6 6 6 6 6 6 6 6 7 10 13 15 15 14 14 14 13 13 12 12 11 11 11 10 10 10 9 9 9 8 8 8 7 7 7 7 7 7 7 7 8 8 9 10 10 11 12 12 13 13 13 14 14 15 15 16 16 16 17 17 18 19 19 20 20 20 21
2 2 2 2 2 2 2 3 4 6 8 8 8 9 9 8 7 6 6 6 6 6 5 5 5 5 5 5 8 12 14 15 14 14 14 13 13 12 12 11 11 11 11 10 10 9 9 8 8 8 7 7 7 7 7 7 7 7 8 8 9 9 10 10 11 11 12 12 13 13 14 14 14 15 15 16 16 17 17 18 19 19 20 20 21 21
2 2 2 2 2 2 2 2 4 6 7 7 7 7 7 6 6 6 6 6 6 6 5 5 5 5 5 6 9 12 14 14 15 14 14 13 13 13 12 12 11 11 11 10 10 9 9 8 8 8 8 8 8 8 8 8 8 8 8 8 9 9 10 10 11 11 12 12 12 13 13 14 14 15 15 16 16 17 17 18 19 19 20 20 21 21
2 2 2 2 2 2 1 2 3 5 6 6 6 7 7 6 6 6 6 5 5 5 5 5 5 5 5 7 9 11 12 13 14 14 14 14 13 13 12 12 12 11 11 10 10 9 9 8 8 8 8 8 8 8 8 8 8 8 8 8 9 9 10 10 11 11 11 12 12 13 13 14 14 15 15 15 16 17 17 18 19 19 20 20 21 21
3 2 2 2 2 2 2 2 2 2 4 6 7 7 6 6 6 6 6 5 5 5 5 5 5 5 5 6 7 8 8 9 9 10 10 11 12 12 12 12 12 12 11 11 10 9 9 9 8 8 8 8 8 8 8 8 8 8 8 8 8 9 9 10 11 11 11 12 12 13 13 14 14 15 15 15 16 17 17 18 19 19 19 20 21 21
4 3 2 2 2 2 2 1 1 1 1 4 6 7 7 7 6 5 6 5 5 4 4 5 5 5 4 5 5 6 6 7 7 7 7 7 8 9 10 11 11 12 11 11 10 10 9 9 9 8 8 9 9 9 8 8 8 8 8 8 8 9 9 10 10 11 12 12 12 13 13 14 14 14 15 15 16 17 17 18 19 19 19 20 20 21
4 4 3 2 1 2 2 2 0 1 0 3 5 6 7 8 7 6 6 5 4 3 3 4 4 4 4 4 4 4 6 7 9 10 10 9 9 9 10 10 10 10 12 11 11 10 10 9 9 9 9 9 9 8 8 8 7 7 7 8 8 9 9 10 10 11 12 12 13 13 13 14 14 14 15 15 16 17 18 18 18 19 19 19 20 21
4 3 3 2 1 1 1 2 1 1 2 4 4 4 4 5 6 7 8 6 4 3 3 3 3 3 3 3 3 4 4 6 7 9 10 10 11 11 10 10 10 11 12 11 11 11 10 10 9 9 9 9 9 8 8 7 7 7 7 8 8 9 9 10 10 11 12 12 13 13 13 14 14 15 15 15 16 17 18 18 18 18 18 19 20 21
3 3 2 2 2 2 2 2 2 2 3 4 5 4 3 2 4 6 8 7 6 4 4 3 3 3 3 3 3 3 3 4 4 4 5 6 7 7 7 7 8 9 9 9 10 10 10 10 10 9 9 9 8 8 7 7 7 7 7 8 8 9 9 10 11 11 12 12 13 13 13 14 14 15 15 16 16 17 18 18 19 18 18 18 19 20
3 3 2 3 3 3 3 3 3 2 3 4 5 6 5 3 3 4 6 6 6 5 4 4 3 3 3 2 2 2 3 3 3 3 4 4 4 4 3 3 4 4 5 6 6 7 8 9 9 9 8 8 8 7 7 7 7 7 8 8 8 9 9 10 10 11 12 12 13 13 13 14 14 15 15 16 16 17 18 19 19 18 18 18 19 20
4 3 3 3 3 3 4 4 5 5 4 4 4 5 5 5 4 5 6 6 5 5 5 5 4 3 2 2 2 1 2 3 3 3 4 3 3 3 2 2 3 3 3 4 4 5 6 6 6 6 7 7 7 7 7 7 7 7 8 8 8 9 9 10 10 11 11 12 12 13 13 14 14 15 15 16 16 17 18 19 19 18 18 18 19 20
5 5 5 4 4 4 4 5 5 5 4 3 3 4 5 5 6 6 7 7 6 5 5 6 5 3 2 2 2 1 1 2 3 3 4 3 3 3 2 2 3 3 3 3 3 4 5 4 4 3 4 4 4 5 6 6 7 8 8 8 9 9 9 10 10 11 11 12 12 13 13 14 14 15 15 15 16 17 18 18 19 18 18 18 19 19
5 5 5 6 5 5 4 4 4 4 4 4 4 5 7 7 6 6 7 8 7 6 6 6 5 3 1 1 1 1 0 2 3 3 4 3 2 3 2 2 3 3 3 3 3 3 4 3 3 3 2 3 5 6 6 7 7 8 8 8 9 9 9 10 10 11 11 12 12 13 13 14 14 14 15 15 16 17 18 18 18 18 18 18 19 19
5 5 5 5 5 5 4 4 4 4 4 4 5 5 7 7 7 7 7 7 7 6 5 5 5 4 2 1 1 1 1 1 2 3 4 3 2 3 3 2 3 3 3 3 3 3 3 3 3 3 2 4 6 7 7 7 7 8 8 8 9 9 9 10 10 11 11 12 12 13 13 14 14 14 15 15 16 17 17 18 18 18 18 18 19 19
5 5 5 5 5 5 5 4 4 3 4 5 5 5 5 5 6 6 6 6 6 6 5 5 5 4 4 3 2 2 1 1 2 3 3 2 2 2 3 2 2 3 3 3 3 3 3 3 3 2 2 6 7 7 7 7 7 7 8 8 9 9 9 10 10 11 11 12 12 13 13 14 14 14 15 15 16 16 17 18 18 18 18 18 19 19
5 5 5 5 5 5 5 5 5 5 6 6 6 6 5 5 5 5 5 5 6 6 6 5 4 4 4 4 3 2 2 2 3 3 3 2 2 2 3 2 2 3 3 3 3 3 3 3 4 4 7 7 7 7 7 7 7 7 8 8 9 9 10 10 11 11 12 12 13 13 13 14 14 14 15 15 16 16 17 17 18 18 18 18 18 19
6 6 6 5 5 5 6 6 7 8 8 8 8 7 7 7 6 6 5 5 5 4 4 4 4 4 4 4 4 3 2 2 2 3 3 2 1 2 3 2 2 2 3 2 3 3 3 3 4 5 7 8 8 7 7 7 7 7 8 8 9 9 10 10 11 11 12 12 13 13 14 14 14 14 15 15 16 16 17 18 18 18 18 18 18 19
6 7 7 7 7 7 7 8 9 9 10 9 9 8 8 8 7 7 6 5 5 4 3 3 3 4 4 5 5 3 2 2 3 3 2 2 1 1 2 2 2 2 3 2 2 3 3 3 3 4 6 7 7 7 7 7 7 7 8 8 9 10 10 11 11 12 12 13 13 13 14 14 14 15 15 15 16 16 17 18 18 18 18 18 18 18
7 8 9 9 9 8 8 8 10 11 11 11 10 9 8 8 8 8 7 6 5 5 4 4 4 4 5 5 5 3 1 1 2 3 3 2 1 0 1 1 1 2 2 2 2 3 3 3 3 4 7 8 8 7 7 7 7 7 8 9 9 10 10 11 11 12 12 12 13 13 13 14 14 15 15 15 16 17 17 18 18 18 18 18 18 18
8 8 8 9 8 7 6 6 8 9 10 10 9 7 6 7 8 8 7 6 5 5 5 5 5 5 5 5 4 2 1 1 1 2 4 3 2 1 1 1 1 2 2 1 2 2 3 3 3 4 6 9 9 8 7 7 7 8 8 9 9 10 10 11 11 11 12 12 12 13 13 14 14 15 15 15 16 17 17 18 18 18 18 18 18 19
6 5 5 6 5 5 4 6 7 7 7 6 5 4 5 5 6 6 6 6 6 7 7 7 7 6 5 5 3 2 1 1 1 1 3 3 2 2 0 1 1 2 1 1 2 2 2 2 3 3 4 8 9 8 8 8 8 8 8 9 9 10 10 11 11 11 11 12 12 13 13 13 14 14 15 15 16 17 17 18 18 18 18 18 18 19
3 3 4 5 6 6 6 7 8 9 8 7 6 7 8 9 9 9 8 8 8 7 7 8 7 6 4 4 3 1 0 1 1 1 2 2 2 2 1 1 1 2 1 1 1 2 2 2 3 3 4 6 8 9 8 8 8 8 9 9 10 10 11 11 11 11 11 12 12 12 13 13 14 14 15 15 16 17 17 18 18 18 18 18 18 18
5 5 7 8 10 12 13 14 14 14 14 11 9 9 10 11 10 10 8 7 7 8 8 8 7 5 4 3 3 2 1 0 1 1 2 3 3 2 1 0 1 1 1 1 2 2 2 2 3 3 3 4 6 8 8 9 9 9 9 9 10 10 11 11 11 11 12 12 12 13 13 13 14 14 15 15 16 16 17 18 18 18 18 17 17 17
9 11 12 14 15 16 18 19 20 20 20 17 15 14 12 11 11 10 9 8 8 8 8 8 7 6 4 3 3 2 1 1 1 1 1 3 3 3 2 1 1 1 2 1 2 2 2 2 2 3 3 3 4 6 8 9 9 9 10 10 10 10 11 11 11 11 12 12 12 13 13 14 14 15 15 15 16 17 17 18 18 17 16 15 14 13
12 13 14 16 17 18 19 20 21 22 22 22 22 20 15 12 11 11 10 9 8 8 8 9 8 6 5 4 3 2 2 1 1 1 1 3 3 3 2 1 1 2 2 1 1 2 3 2 2 2 3 3 3 4 6 8 9 9 10 10 11 11 11 11 11 11 11 12 12 13 13 14 14 15 15 16 16 17 17 18 17 16 14 11 8 7
13 14 15 16 17 18 18 19 19 20 22 23 22 19 13 10 9 10 11 10 9 8 8 8 8 6 5 5 3 2 1 2 2 2 2 3 3 3 3 2 1 1 2 1 1 2 3 2 2 2 2 3 3 3 4 6 7 8 9 10 11 11 11 11 11 11 11 12 12 13 13 14 14 15 15 15 16 17 17 17 16 14 10 7 6 6
11 12 12 13 14 14 14 14 15 17 20 21 18 14 7 5 6 8 10 10 10 9 9 8 8 7 6 5 4 2 2 3 3 3 3 3 3 3 3 2 1 1 1 2 1 1 2 2 2 2 2 3 3 3 3 4 4 5 5 7 8 9 10 11 11 11 11 12 12 13 13 14 14 15 15 15 16 17 17 17 15 11 6 5 5 6
8 9 8 8 8 8 8 8 10 12 15 15 12 9 5 4 4 6 8 9 9 9 9 9 8 8 7 6 5 4 3 4 4 4 3 3 3 4 4 3 2 1 1 1 2 1 0 2 2 2 2 2 3 3 3 3 3 3 4 4 5 6 9 10 11 11 11 11 12 13 13 14 14 14 15 15 16 16 17 17 15 11 6 5 6 6
7 7 7 6 6 6 6 6 6 7 8 8 7 6 6 5 5 5 6 6 6 7 8 9 9 8 7 5 4 4 3 4 5 6 4 3 3 3 3 3 2 1 1 1 2 2 2 1 2 2 2 2 3 3 3 3 2 3 3 3 3 4 8 9 9 9 9 10 11 12 13 13 14 14 15 15 16 16 17 17 16 12 7 6 6 7
7 6 6 6 5 5 5 5 4 5 5 5 5 5 6 6 6 6 4 4 4 5 7 8 8 7 6 4 3 2 2 3 5 7 6 4 3 3 2 3 3 2 1 2 2 2 2 1 1 1 2 2 2 2 3 3 2 2 2 2 2 3 6 6 7 7 7 8 9 10 11 12 13 13 14 15 15 16 17 17 16 14 10 7 6 7
8 7 6 6 5 5 5 5 5 5 5 5 5 6 6 6 6 6 5 4 4 4 4 6 7 7 7 4 3 2 1 2 6 8 7 5 4 4 3 3 3 3 2 1 1 2 1 1 1 0 1 2 2 2 2 2 2 2 1 1 1 2 3 4 5 5 6 6 6 6 8 8 10 11 12 13 14 15 16 17 17 16 14 10 8 7
7 7 6 6 5 5 5 5 5 5 5 5 6 6 6 6 6 6 6 5 5 5 4 3 3 4 5 5 4 3 2 3 6 8 7 5 4 4 4 4 4 4 3 2 2 2 1 1 1 1 1 2 2 3 2 2 2 2 2 1 1 2 2 3 3 4 5 5 5 5 5 5 6 7 9 11 13 14 16 16 17 17 17 15 12 9
7 7 6 5 5 5 5 5 5 5 5 5 5 5 6 6 6 6 6 6 6 6 6 6 5 4 3 3 4 4 5 5 7 7 6 5 4 5 4 4 4 4 4 3 2 2 2 1 1 1 2 1 1 2 2 2 3 3 3 2 2 2 2 2 2 3 3 4 4 5 4 4 5 5 6 10 12 14 15 15 16 16 17 16 15 13
7 7 6 5 5 5 5 5 5 5 5 5 5 5 6 6 6 6 6 6 6 7 7 7 7 7 7 5 4 5 5 5 6 6 5 4 4 4 4 4 4 4 3 3 3 3 3 2 2 2 2 1 1 2 3 3 3 4 3 3 3 3 3 3 3 2 3 4 4 5 5 5 5 5 6 9 11 12 13 14 14 15 16 16 16 15
7 7 6 5 4 5 5 5 5 4 4 5 5 6 6 7 7 7 6 7 7 7 7 7 7 9 11 11 9 8 7 6 6 6 5 4 4 4 5 4 3 3 2 3 4 3 3 3 3 2 0 1 2 2 2 2 3 3 3 3 3 3 3 3 3 3 3 4 5 5 5 5 5 5 5 6 7 7 8 8 10 12 14 14 14 15
7 7 6 5 5 5 5 5 5 5 5 5 6 6 7 8 8 8 7 7 8 8 9 8 8 9 11 12 12 11 9 8 7 6 5 4 4 4 5 5 4 3 2 2 2 3 4 4 3 3 2 1 1 2 2 2 2 3 3 3 3 3 3 3 3 3 3 4 4 5 5 5 5 4 5 5 5 5 6 6 8 9 10 9 10 12
8 7 7 6 5 5 5 5 5 5 5 6 7 7 8 8 8 7 7 8 8 9 10 10 9 9 9 10 10 10 9 7 6 5 4 3 3 3 5 5 5 4 2 2 2 2 4 4 3 3 3 2 1 1 2 2 2 2 2 2 2 3 4 3 3 3 3 3 3 4 4 4 4 5 5 5 5 5 5 5 6 7 7 6 6 8
8 7 7 6 6 6 6 6 6 6 6 6 6 6 7 7 6 6 7 7 8 8 8 9 9 9 9 9 9 8 8 7 6 5 3 3 4 4 5 5 5 4 3 3 2 2 3 4 3 2 2 2 1 0 1 2 3 3 2 1 2 3 4 4 4 4 4 3 3 4 5 5 5 6 5 6 5 4 4 4 5 6 6 4 4 5
9 8 7 6 6 6 6 6 7 7 7 6 6 6 6 5 5 6 6 7 6 6 6 7 8 9 9 8 8 7 7 7 6 6 6 5 6 6 6 6 5 4 4 4 4 3 3 3 3 3 2 2 2 1 1 2 3 3 2 2 2 3 4 4 4 3 4 4 4 4 5 5 5 5 6 6 5 5 5 5 6 7 6 5 4 3
8 7 7 7 7 7 8 8 8 7 6 6 6 5 5 4 5 6 7 7 7 7 6 7 8 9 9 8 7 6 5 6 6 6 6 6 6 6 6 6 5 4 4 4 4 3 3 3 3 2 2 2 2 2 1 1 2 3 3 2 2 2 2 3 4 4 3 4 4 4 4 4 4 4 5 5 5 4 5 5 6 7 7 5 4 4
8 8 7 7 7 7 7 7 7 6 6 7 6 5 4 5 6 6 7 6 7 7 6 6 7 8 9 8 7 5 4 4 5 6 7 8 7 6 6 5 3 3 3 4 4 3 2 3 2 1 1 2 2 2 1 1 2 3 3 2 1 1 1 2 3 3 4 4 4 4 4 4 4 4 4 4 4 4 4 4 4 4 5 4 4 4
9 8 8 7 7 7 7 7 7 7 7 7 6 6 5 5 6 6 6 6 7 7 6 6 7 7 7 7 6 5 4 3 4 5 6 8 8 8 6 5 4 3 4 4 4 4 4 3 2 1 0 1 2 2 1 1 1 2 2 2 2 1 2 2 2 2 3 4 4 4 4 4 4 4 4 4 4 4 4 5 5 5 5 4 4 5
9 9 8 7 7 7 8 8 8 8 7 7 6 6 5 5 5 5 6 7 7 6 5 5 6 7 7 7 7 6 5 4 3 3 3 5 5 6 5 5 4 4 4 4 4 4 4 4 4 3 2 1 1 1 1 1 1 1 2 3 3 2 3 3 2 2 2 3 4 4 5 4 4 4 4 5 5 5 5 4 4 5 5 5 5 5
10 9 9 8 7 7 7 8 8 8 8 7 7 6 5 5 5 5 6 6 6 6 5 4 5 6 8 8 7 6 6 5 4 2 2 3 3 4 4 4 4 4 4 4 4 4 3 3 4 4 3 2 2 1 1 1 1 1 1 2 2 2 2 3 3 3 2 2 3 4 5 5 5 4 5 4 4 4 4 4 4 4 4 5 5 5
10 10 9 8 8 7 8 8 8 9 9 8 7 6 5 6 6 6 6 5 6 6 6 5 5 6 7 6 6 6 7 7 5 3 2 2 2 3 3 3 3 4 4 5 5 4 3 2 3 3 3 3 2 1 0 1 1 1 1 1 1 1 2 3 3 3 3 2 3 3 4 4 3 3 4 4 4 4 4 5 4 4 4 5 5 5
10 10 10 9 8 8 8 8 8 9 9 9 8 7 6 7 8 8 6 5 5 5 5 6 7 7 6 5 5 6 7 6 5 3 2 2 2 2 2 2 3 3 4 4 3 3 2 1 1 2 2 2 3 2 1 0 1 1 1 1 1 1 1 2 3 3 3 3 3 3 3 1 0 1 2 3 4 5 5 5 4 4 4 5 5 5
9 9 9 9 9 9 8 8 8 9 9 10 9 8 7 6 6 5 5 5 5 5 5 6 7 8 8 7 6 6 6 5 4 3 2 1 1 2 2 2 2 3 3 2 2 2 2 2 1 1 3 4 3 2 2 1 1 1 2 1 1 1 1 2 3 3 4 4 4 4 3 1 1 1 1 2 3 4 4 5 5 5 5 5 5 5
8 8 9 9 9 9 8 8 8 9 9 10 9 9 8 7 6 5 4 4 4 4 4 5 6 7 8 8 7 6 6 5 5 4 2 2 2 2 2 2 2 3 3 2 2 2 2 2 2 1 2 4 4 3 2 1 1 1 2 2 2 1 1 2 3 3 4 4 4 4 3 2 2 1 1 2 2 4 4 5 6 6 6 6 6 6
Wind_Direction
77 68 19 34 63 96 107 123 124 122 117 113 111 109 104 95 88 85 86 89 92 95 97 98 100 104 108 109 110 110 111 110 109 108 107 106 106 105 105 104 103 103 102 100 97 93 89 85 81 78 75 73 70 67 62 57 50 43 36 29 23 18 12 7 1 357 353 350 349 347 346 344 343 343 344 344 343 342 340 337 335 334 332 331 331 332
66 65 38 30 49 77 91 106 120 125 125 122 120 117 111 103 96 88 83 83 86 91 95 97 98 100 103 108 109 110 110 110 109 108 107 107 106 105 104 104 104 103 102 100 97 94 90 86 83 80 77 74 71 66 62 56 50 43 37 30 24 18 12 6 1 356 353 350 348 347 346 344 343 343 344 344 343 341 339 337 335 334 332 333 333 334
73 62 45 29 41 59 86 96 107 115 120 120 120 118 113 108 102 96 91 87 84 84 87 91 95 98 99 106 109 110 111 110 110 109 108 107 106 105 104 104 104 104 103 101 98 94 90 87 84 81 78 74 70 65 61 55 49 43 37 30 24 18 12 5 0 356 353 350 348 346 345 344 343 344 345 344 343 341 338 337 335 334 333 334 335 336
77 73 57 45 40 42 59 96 105 105 106 108 109 108 106 103 100 97 96 94 89 84 81 83 88 93 97 104 109 111 111 111 110 109 108 107 106 105 106 106 106 105 103 101 97 94 90 87 84 80 76 72 68 64 60 55 49 43 37 30 23 16 10 4 360 356 353 350 348 346 344 344 344 344 344 343 342 340 338 337 335 335 335 336 338 338
67 68 60 65 54 47 45 95 108 108 104 102 99 98 95 96 97 97 94 92 89 86 82 80 82 87 95 102 108 110 110 110 109 108 107 107 107 107 107 107 107 106 104 100 97 93 89 85 81 77 74 71 67 64 60 55 50 43 36 29 22 14 8 4 359 356 353 350 347 345 344 344 344 344 344 342 341 340 338 337 336 335 336 339 340 340
56 49 45 64 72 74 76 104 112 110 105 99 95 92 89 91 93 94 92 90 88 87 83 77 74 76 83 96 104 106 107 106 106 106 106 107 107 108 108 108 107 105 103 99 96 92 87 83 79 75 72 70 67 64 61 55 50 42 35 27 19 13 7 3 359 356 352 349 347 345 344 344 344 344 343 342 340 339 338 336 336 337 339 340 341 341
60 40 42 58 67 71 73 98 111 115 115 111 103 94 88 85 84 85 87 89 91 89 85 75 67 62 65 80 90 95 98 99 100 101 103 105 107 108 108 108 106 104 101 97 93 89 85 81 77 74 72 70 67 64 61 55 48 40 32 24 18 12 7 2 359 355 351 348 346 345 345 345 344 343 342 341 340 339 338 336 337 338 341 342 342 341
88 63 51 72 81 79 62 57 75 107 125 125 119 110 99 89 83 81 80 81 84 87 88 80 72 63 59 68 76 80 83 87 87 88 93 97 100 102 104 104 103 101 98 95 91 87 82 79 76 73 72 70 67 63 59 52 45 37 29 22 16 11 7 2 358 354 351 348 346 345 345 345 344 343 342 341 340 339 337 337 337 339 342 343 343 341
109 101 76 91 106 111 102 61 18 12 118 127 126 123 118 110 100 90 81 75 73 76 85 88 84 76 65 66 71 77 80 80 77 75 76 78 83 89 95 97 97 96 93 90 87 83 80 76 74 72 72 69 66 61 55 48 41 33 26 20 15 10 5 1 357 353 350 347 346 345 345 344 343 342 342 341 340 339 337 337 338 340 343 343 343 342
106 108 101 88 92 112 125 119 98 328 59 112 117 120 123 123 118 110 96 83 71 67 75 87 92 90 78 66 66 74 82 81 80 78 74 71 74 78 80 82 84 85 83 82 80 78 75 72 70 70 69 67 63 58 51 43 36 29 23 18 13 9 5 0 356 353 349 347 345 345 344 343 343 342 342 342 341 339 337 337 339 341 344 344 343 342
100 98 99 91 72 61 93 117 132 137 113 101 96 95 103 119 123 122 118 111 100 85 76 77 83 90 91 77 68 67 73 73 70 67 66 65 68 71 70 70 71 72 72 72 71 70 68 65 64 64 65 64 60 55 47 39 31 25 20 16 12 8 4 360 356 352 349 346 345 344 343 342 342 342 342 342 341 339 337 337 339 342 344 345 344 342
115 107 102 112 111 103 95 101 109 117 119 113 108 104 101 109 118 122 126 127 124 116 102 83 70 67 76 83 82 78 77 76 71 62 55 53 53 54 59 61 61 60 61 60 59 58 58 55 53 54 57 58 56 51 43 35 27 21 17 14 10 7 3 359 355 351 348 345 344 343 342 342 342 342 343 342 341 339 337 337 339 342 345 345 344 342
119 116 112 122 130 135 134 134 134 136 140 141 142 143 144 137 121 114 117 121 123 121 115 101 83 62 50 52 66 86 95 90 84 75 62 49 36 31 39 52 53 51 51 50 46 43 44 42 41 41 46 50 49 45 37 29 23 19 15 12 9 6 2 358 354 350 346 344 343 342 342 342 342 343 343 343 341 339 338 338 340 343 345 345 344 342
124 121 122 132 144 153 157 158 159 162 167 163 153 145 138 132 122 115 111 113 114 115 111 105 97 80 50 29 24 50 110 105 95 81 69 52 29 12 17 50 55 52 51 49 39 30 27 30 29 28 31 39 44 42 33 25 20 16 13 10 7 4 1 357 352 348 345 343 342 342 342 342 342 343 343 343 341 339 338 338 340 343 345 345 344 342
139 140 144 153 162 169 173 172 171 169 164 149 132 123 118 121 123 123 121 123 123 121 113 106 100 88 57 20 354 352 114 111 103 91 79 57 26 5 8 46 54 51 49 48 36 21 15 20 17 6 358 20 38 43 36 24 17 13 10 7 5 2 359 355 350 346 343 342 342 342 342 342 343 343 343 342 341 340 338 339 341 343 345 344 343 341
149 152 157 164 169 176 182 180 174 164 147 132 128 130 133 137 138 135 131 133 135 134 129 123 116 106 70 359 327 317 258 107 105 99 94 67 26 5 5 43 56 53 45 43 29 10 1 6 2 350 335 26 41 42 38 27 18 12 9 5 2 359 357 352 348 345 342 342 342 343 343 343 343 343 343 343 342 340 338 339 341 343 344 343 342 341
154 159 163 166 171 178 182 180 170 154 138 135 138 143 147 147 145 142 139 140 141 144 147 144 142 140 144 167 260 277 259 117 108 103 98 77 30 2 2 39 63 64 48 39 24 9 1 357 346 335 338 38 44 42 35 27 19 12 7 3 360 356 353 350 346 344 342 342 343 343 343 343 343 343 343 343 342 340 338 339 340 342 343 343 341 340
159 164 166 169 172 174 173 173 166 151 141 143 144 145 142 140 140 141 144 146 150 154 158 157 155 152 150 163 180 201 211 148 122 111 98 81 36 360 360 32 63 72 59 39 20 8 4 351 324 314 47 44 42 39 33 27 19 11 6 2 358 354 350 348 345 344 343 343 343 344 344 344 343 343 343 343 342 340 338 339 340 342 343 342 340 339
165 169 169 172 171 168 168 172 169 164 159 158 153 147 140 138 139 144 151 155 158 159 159 158 155 149 143 147 151 159 184 157 127 111 98 85 47 5 358 23 54 67 61 37 17 3 360 344 349 22 60 50 43 36 30 24 17 10 4 360 356 353 349 347 345 344 344 344 344 344 344 344 344 343 343 343 342 340 338 339 340 342 342 341 340 338
169 176 179 174 167 165 173 181 180 176 171 164 156 150 148 148 150 153 159 161 160 156 149 146 142 135 126 125 129 141 182 154 120 104 95 87 60 16 1 16 45 64 61 33 10 358 357 351 353 13 43 43 40 34 26 20 14 8 3 358 355 352 349 347 346 346 346 346 346 345 345 344 344 343 343 343 342 340 339 339 340 342 343 341 339 338
174 185 191 180 172 171 181 186 184 178 170 160 154 151 154 154 157 160 162 156 151 144 131 126 127 128 123 127 135 151 198 154 126 114 108 92 61 18 8 17 41 60 62 29 7 358 357 360 348 353 24 37 38 33 23 16 10 6 1 357 354 351 350 349 348 347 347 347 347 346 345 345 344 343 343 343 342 341 340 340 341 342 342 340 339 338
183 192 196 187 183 181 184 180 177 172 164 160 159 160 161 161 162 162 158 152 145 139 127 119 113 111 112 119 127 140 237 144 131 128 120 111 104 30 359 9 43 62 58 17 354 348 353 2 358 360 10 23 28 29 23 14 8 4 359 355 352 351 350 349 349 349 348 348 348 347 346 345 344 344 344 344 343 342 340 340 341 341 341 340 339 338
191 194 192 188 186 181 170 161 159 160 161 163 163 162 156 156 155 152 148 142 133 122 110 103 96 92 94 102 105 95 21 31 105 117 110 117 134 160 350 10 56 71 58 357 338 337 345 2 7 6 7 12 17 21 21 12 7 2 357 353 351 350 350 350 350 350 349 349 348 348 347 346 345 345 345 344 344 342 341 341 340 340 340 339 339 338
190 185 174 174 169 159 139 138 143 148 151 146 132 112 99 103 106 107 108 106 106 105 104 100 95 92 95 103 104 88 31 7 35 90 100 114 128 137 90 44 77 85 69 356 331 333 342 359 5 6 6 6 8 12 14 11 7 2 357 353 350 350 350 351 351 351 350 350 349 348 347 346 346 345 345 345 344 343 341 340 340 340 340 340 339 338
157 148 145 148 146 141 135 139 142 142 138 126 113 102 95 92 90 89 89 93 100 105 110 108 109 112 121 127 128 120 46 359 27 82 102 109 116 118 94 63 87 99 93 344 331 341 360 3 1 360 5 3 4 5 8 8 6 1 356 352 351 351 352 353 352 352 352 351 350 349 348 347 347 346 346 345 344 343 341 340 340 340 341 341 340 338
118 126 132 137 138 138 139 141 142 141 137 133 128 123 116 110 105 102 103 109 117 122 121 119 123 129 135 140 146 155 157 46 44 70 104 114 123 129 128 93 101 109 106 359 346 357 20 11 358 352 355 354 355 357 1 3 3 1 357 354 353 353 354 355 355 354 353 352 351 350 349 349 348 348 347 346 344 343 341 341 341 341 342 342 340 337
119 126 131 134 136 138 140 142 142 141 139 138 136 135 130 125 122 122 128 138 141 139 134 133 133 135 138 148 159 165 157 119 83 78 110 117 124 134 154 155 130 113 99 43 3 5 27 18 356 340 336 332 335 343 353 357 359 359 358 356 355 355 356 357 356 355 354 353 352 351 351 350 349 348 347 346 345 343 342 342 342 343 343 343 340 336
116 122 127 131 134 137 140 141 142 142 141 140 140 140 138 135 136 141 151 154 151 146 142 141 142 144 149 160 165 162 154 145 146 158 154 119 119 131 154 149 129 108 101 68 11 1 18 12 349 327 315 311 315 329 343 351 355 356 356 355 355 356 358 358 358 356 354 353 353 352 352 351 351 350 348 347 346 345 344 344 344 344 344 343 338 330
103 109 115 121 127 131 135 138 140 142 142 143 144 145 145 144 146 151 154 153 150 147 146 146 146 147 147 147 145 145 168 175 177 175 165 119 113 123 144 135 119 102 104 86 28 360 359 347 330 311 303 307 313 324 333 344 350 351 351 352 353 355 357 358 357 355 353 353 353 353 353 352 352 350 349 348 347 346 346 346 345 345 345 341 333 326
87 92 97 105 112 118 124 129 135 139 142 143 144 145 143 141 143 145 146 149 150 150 147 146 144 142 138 132 131 145 205 196 184 172 160 126 121 129 144 137 124 100 105 102 77 31 347 325 313 301 295 310 316 319 322 334 341 344 344 346 348 351 355 357 356 353 351 351 351 352 353 352 352 351 350 349 349 348 348 348 348 347 345 337 332 329
79 79 80 84 89 97 104 113 123 131 136 137 136 132 117 112 121 132 141 149 151 149 145 143 143 144 145 141 146 163 196 183 172 165 157 127 125 136 150 145 133 84 63 105 113 110 40 306 304 305 312 318 317 315 315 324 333 339 340 341 341 344 351 354 353 350 348 348 349 350 351 351 351 350 349 349 350 350 350 350 351 350 345 340 336 333
84 80 77 74 73 75 82 91 101 111 119 121 118 112 104 104 111 122 135 144 145 142 139 139 142 147 153 150 152 157 167 154 157 159 148 124 115 125 143 137 126 96 29 65 108 128 142 223 278 298 316 322 320 315 312 319 329 339 345 344 337 336 344 348 348 346 342 343 344 346 347 348 348 348 348 349 350 351 352 352 353 353 350 344 339 334
91 87 82 78 75 74 76 81 87 93 98 99 100 100 100 100 101 103 105 111 121 128 133 136 140 143 147 132 120 112 114 133 150 154 146 126 116 119 129 123 121 114 75 45 63 96 123 154 214 283 308 314 314 313 310 314 324 340 352 347 331 323 332 340 341 339 336 336 337 339 341 342 343 344 345 347 349 352 353 353 354 354 353 347 340 334
98 95 92 88 86 83 82 84 86 90 93 94 95 95 95 93 91 88 81 77 81 94 115 131 139 144 144 131 113 95 92 134 151 152 144 128 122 128 137 132 133 133 122 88 68 70 86 107 122 310 313 316 315 311 306 308 317 326 337 324 303 303 314 327 330 329 328 329 328 328 331 334 336 338 340 344 347 350 352 353 354 354 354 350 344 336
103 101 100 99 98 97 95 93 91 91 91 91 92 92 92 90 88 84 79 74 71 67 66 80 108 130 140 139 138 137 143 151 155 152 141 131 127 130 137 145 148 144 134 131 121 107 93 80 77 69 33 335 321 312 301 299 305 310 304 278 267 272 287 305 315 319 321 324 323 321 321 324 328 331 333 339 344 347 350 351 352 353 353 350 347 341
110 108 108 109 110 109 106 102 98 95 92 90 89 89 89 88 86 84 82 80 79 76 71 64 62 67 86 111 126 134 141 146 149 148 140 134 130 129 133 149 153 146 132 135 134 128 116 99 72 62 66 33 331 310 305 309 318 322 320 310 299 290 286 292 300 309 318 324 324 323 321 324 327 328 328 337 341 344 346 348 349 350 349 347 345 341
117 116 116 116 116 115 112 107 102 99 97 94 91 89 88 87 85 84 82 82 82 81 79 73 68 63 62 69 81 96 113 121 125 127 127 125 120 119 124 140 149 147 132 139 142 138 120 104 78 51 50 53 279 286 304 322 335 339 332 323 316 310 304 301 303 310 320 327 326 324 324 328 330 329 327 334 337 340 343 345 346 346 345 343 341 339
121 120 120 119 119 117 114 110 105 102 100 98 95 92 90 88 86 85 84 82 82 82 82 77 72 69 68 71 74 77 83 86 90 94 99 103 106 110 118 125 131 133 121 137 143 140 123 115 106 93 41 277 266 271 294 324 332 328 314 310 305 302 300 302 311 325 333 330 327 326 328 330 331 330 328 332 335 339 341 342 342 341 341 339 338 338
126 125 125 124 122 118 114 111 107 103 100 98 97 96 94 90 88 86 84 83 82 82 83 82 80 76 72 74 75 75 75 76 78 80 83 88 99 113 122 123 122 115 95 107 117 120 117 122 129 139 153 210 269 288 309 316 307 301 302 311 314 311 304 307 321 334 336 333 331 331 330 330 332 334 332 333 337 342 343 340 338 337 337 335 335 336
130 128 127 125 121 117 112 110 109 107 105 103 101 99 97 94 90 87 84 84 84 84 84 83 82 78 73 70 67 66 66 67 68 68 68 73 93 112 121 122 124 122 112 91 87 96 105 113 123 135 144 154 181 276 310 302 287 282 302 329 327 315 307 313 322 329 330 330 330 330 328 330 335 339 338 337 338 338 336 332 329 328 330 333 334 335
131 128 126 122 117 111 107 109 110 111 110 107 103 100 99 99 99 98 94 91 90 89 89 87 85 80 73 67 62 58 55 55 55 56 57 73 91 104 111 115 119 122 123 103 86 85 96 108 114 118 118 134 135 140 304 289 289 297 315 310 286 281 289 303 314 323 330 330 331 332 336 340 343 343 339 335 329 322 317 314 314 315 321 328 333 334
130 127 126 123 119 116 116 116 113 110 106 103 101 101 104 108 112 113 111 106 103 101 102 101 98 92 84 76 67 59 53 50 52 56 61 69 83 95 103 109 117 123 122 104 86 73 77 101 114 127 149 145 133 110 322 295 297 307 322 296 284 288 301 308 312 320 335 333 334 340 350 348 345 339 332 326 318 311 312 311 314 319 326 328 327 324
126 124 123 123 124 125 125 119 114 108 104 99 99 101 108 113 116 117 115 113 113 113 112 109 106 103 99 92 83 70 57 51 52 57 62 64 70 80 94 104 116 125 121 105 91 74 58 71 84 107 151 142 129 119 117 303 304 303 299 311 338 7 3 325 318 320 331 330 335 344 356 350 338 325 318 313 309 307 310 311 314 319 327 326 322 317
121 119 120 123 125 124 120 116 112 109 107 106 106 107 110 114 115 115 114 114 114 113 112 110 106 104 101 102 100 93 75 55 51 54 60 66 70 74 81 87 95 105 108 108 109 104 73 58 53 59 126 113 108 108 124 270 294 300 303 329 14 55 40 310 313 322 332 330 335 345 355 347 334 323 319 317 314 311 311 311 311 314 322 325 326 323
120 121 124 127 128 125 121 118 114 111 108 108 108 110 112 115 116 117 117 116 115 115 116 118 113 108 105 109 111 109 98 72 53 47 49 54 60 67 73 72 70 72 81 100 116 125 120 113 112 121 117 100 98 102 132 238 283 301 316 336 343 312 257 284 306 329 335 330 333 339 347 345 343 340 339 332 325 317 311 313 317 322 329 336 336 333
125 127 130 131 130 128 125 122 118 113 109 108 107 109 112 114 115 116 118 118 118 119 122 121 119 118 120 124 124 121 114 98 75 51 36 37 40 46 54 60 65 70 75 86 100 116 126 135 143 146 134 93 62 55 208 221 251 296 313 327 326 315 299 306 314 322 325 328 330 334 340 347 358 1 352 333 320 311 305 307 317 328 337 339 339 336
132 133 133 133 131 128 126 123 120 116 113 111 110 110 113 115 116 115 115 118 119 121 121 114 113 117 125 130 131 131 128 123 112 86 51 43 45 49 53 57 63 71 81 84 85 89 103 125 137 139 132 107 71 27 279 243 241 262 288 308 320 328 326 320 315 311 315 330 335 340 347 356 1 358 341 327 314 308 307 312 320 330 339 341 339 335
136 135 134 133 131 129 127 125 123 120 118 116 115 115 118 122 123 122 119 121 122 122 121 116 114 115 120 124 129 132 132 130 126 117 90 68 59 59 59 60 63 66 69 71 73 77 91 118 134 139 134 120 110 99 6 300 277 262 260 277 309 331 325 313 310 311 319 333 346 359 11 13 2 343 327 323 321 319 321 325 329 334 341 342 338 334
134 134 134 133 132 131 130 128 126 123 122 121 120 120 122 126 126 126 124 125 124 124 124 125 125 123 123 124 126 127 126 124 120 113 100 88 79 73 65 64 64 63 57 51 48 49 56 86 144 168 172 151 137 129 118 55 321 296 279 279 302 323 319 309 309 315 328 336 346 2 27 40 358 290 294 313 319 323 327 332 335 338 340 339 335 331
133 133 134 133 132 131 131 129 127 126 125 125 124 124 125 125 124 123 121 120 119 121 124 129 130 130 128 129 129 127 126 124 120 113 101 95 96 95 87 78 76 72 59 40 27 23 23 24 3 241 222 205 185 159 124 100 29 344 332 321 317 317 322 308 308 315 331 336 340 346 360 354 289 259 269 300 315 324 332 338 340 340 338 336 333 330
134 134 133 132 131 130 129 129 128 126 126 126 126 125 125 124 123 120 116 113 112 113 117 124 128 131 132 132 131 131 134 133 130 127 119 119 117 111 99 85 83 85 84 77 63 48 47 43 28 343 247 209 197 185 154 132 90 29 355 332 327 330 345 315 311 316 330 334 335 337 343 338 323 303 289 299 325 341 347 346 342 338 335 335 333 330